Time,TemperatureF,DewpointF,PressureIn,WindDirection,WindDirectionDegrees,WindSpeedMPH,WindSpeedGustMPH,Humidity,HourlyPrecipIn,Conditions,Clouds,dailyrainin,SoftwareType,DateUTC
2013-05-16 00:00:00,73.6,54.4,30.03,East,90,0.0,9.4,51,0.00,,---,0.00,VWS V13.01,2013-05-16 04:00:00,
2013-05-16 00:01:00,73.8,54.5,30.03,ESE,112,2.9,2.9,51,0.00,,---,0.00,VWS V13.01,2013-05-16 04:01:00,
2013-05-16 00:06:00,73.8,54.5,30.03,East,90,2.5,5.1,51,0.00,,---,0.00,VWS V13.01,2013-05-16 04:06:00,
2013-05-16 00:11:00,73.6,53.8,30.03,SE,135,0.7,5.6,50,0.00,,---,0.00,VWS V13.01,2013-05-16 04:11:00,
2013-05-16 00:16:00,73.6,53.8,30.03,SSE,158,0.0,5.6,50,0.00,,---,0.00,VWS V13.01,2013-05-16 04:16:00,
2013-05-16 00:21:00,73.4,53.7,30.02,SSE,158,0.0,5.6,50,0.00,,---,0.00,VWS V13.01,2013-05-16 04:21:00,
2013-05-16 00:26:00,73.4,53.7,30.02,ESE,112,3.1,5.6,50,0.00,,---,0.00,VWS V13.01,2013-05-16 04:26:00,
2013-05-16 00:31:00,73.2,53.5,30.02,ESE,112,0.0,5.6,50,0.00,,---,0.00,VWS V13.01,2013-05-16 04:31:00,
2013-05-16 00:36:00,73.2,53.5,30.02,ESE,112,0.0,5.6,50,0.00,,---,0.00,VWS V13.01,2013-05-16 04:36:00,
2013-05-16 00:41:00,73.0,53.3,30.01,ESE,112,1.6,5.6,50,0.00,,---,0.00,VWS V13.01,2013-05-16 04:41:00,
2013-05-16 00:46:00,73.0,53.3,30.02,ESE,112,0.0,5.6,50,0.00,,---,0.00,VWS V13.01,2013-05-16 04:46:00,
2013-05-16 00:51:00,72.7,53.0,30.01,SE,135,0.0,5.6,50,0.00,,---,0.00,VWS V13.01,2013-05-16 04:51:00,
2013-05-16 00:56:00,72.7,53.0,30.01,SE,135,0.0,5.6,50,0.00,,---,0.00,VWS V13.01,2013-05-16 04:56:00,
2013-05-16 01:00:00,72.7,53.0,30.01,ESE,112,0.0,5.6,50,0.00,,---,0.00,VWS V13.01,2013-05-16 05:00:00,
2013-05-16 01:01:00,72.7,53.0,30.01,ESE,112,0.0,5.6,50,0.00,,---,0.00,VWS V13.01,2013-05-16 05:01:00,
2013-05-16 01:06:00,72.7,53.0,30.01,ESE,112,0.0,5.6,50,0.00,,---,0.00,VWS V13.01,2013-05-16 05:06:00,
2013-05-16 01:11:00,72.5,52.8,30.01,ESE,112,0.0,0.0,50,0.00,,---,0.00,VWS V13.01,2013-05-16 05:11:00,
2013-05-16 01:16:00,72.5,52.8,30.00,SE,135,0.0,0.0,50,0.00,,---,0.00,VWS V13.01,2013-05-16 05:16:00,
2013-05-16 01:21:00,72.3,52.7,30.00,SE,135,0.0,0.0,50,0.00,,---,0.00,VWS V13.01,2013-05-16 05:21:00,
2013-05-16 01:26:00,72.1,53.0,30.00,ESE,112,0.0,0.0,51,0.00,,---,0.00,VWS V13.01,2013-05-16 05:26:00,
2013-05-16 01:31:00,72.0,52.9,30.00,ESE,112,0.0,0.0,51,0.00,,---,0.00,VWS V13.01,2013-05-16 05:31:00,
2013-05-16 01:36:00,72.0,52.9,30.00,ESE,112,0.0,0.0,51,0.00,,---,0.00,VWS V13.01,2013-05-16 05:36:00,
2013-05-16 01:41:00,72.0,52.9,29.99,ESE,112,0.0,0.0,51,0.00,,---,0.00,VWS V13.01,2013-05-16 05:41:00,
2013-05-16 01:46:00,71.8,53.2,29.99,ESE,112,0.0,0.0,52,0.00,,---,0.00,VWS V13.01,2013-05-16 05:46:00,
2013-05-16 01:51:00,71.6,53.1,29.99,ESE,112,0.0,0.0,52,0.00,,---,0.00,VWS V13.01,2013-05-16 05:51:00,
2013-05-16 01:56:00,71.4,52.9,29.99,ESE,112,0.0,0.0,52,0.00,,---,0.00,VWS V13.01,2013-05-16 05:56:00,
2013-05-16 02:00:00,71.2,52.7,29.99,ESE,112,0.0,0.0,52,0.00,,---,0.00,VWS V13.01,2013-05-16 06:00:00,
2013-05-16 02:01:00,71.2,52.7,29.99,ESE,112,0.0,0.0,52,0.00,,---,0.00,VWS V13.01,2013-05-16 06:01:00,
2013-05-16 02:06:00,71.2,52.7,29.99,ESE,112,0.0,0.0,52,0.00,,---,0.00,VWS V13.01,2013-05-16 06:06:00,
2013-05-16 02:11:00,71.1,52.6,29.98,ESE,112,0.0,0.0,52,0.00,,---,0.00,VWS V13.01,2013-05-16 06:11:00,
2013-05-16 02:15:00,70.7,52.8,29.96,SSE,158,0.0,0.0,53,0.00,,---,0.00,VWS V13.01,2013-05-16 06:15:00,
2013-05-16 02:16:00,71.1,52.6,29.97,ESE,112,0.0,0.0,52,0.00,,---,0.00,VWS V13.01,2013-05-16 06:16:00,
2013-05-16 02:21:00,70.9,52.4,29.97,ESE,112,0.0,0.0,52,0.00,,---,0.00,VWS V13.01,2013-05-16 06:21:00,
2013-05-16 02:26:00,70.9,53.4,29.97,ESE,112,0.0,0.0,54,0.00,,---,0.00,VWS V13.01,2013-05-16 06:26:00,
2013-05-16 02:31:00,70.9,53.9,29.97,ESE,112,0.0,0.0,55,0.00,,---,0.00,VWS V13.01,2013-05-16 06:31:00,
2013-05-16 02:36:00,70.9,53.9,29.97,SE,135,0.9,5.1,55,0.00,,---,0.00,VWS V13.01,2013-05-16 06:36:00,
2013-05-16 02:41:00,70.9,53.9,29.96,SE,135,2.9,5.1,55,0.00,,---,0.00,VWS V13.01,2013-05-16 06:41:00,
2013-05-16 02:46:00,71.2,54.3,29.96,SE,135,0.0,5.1,55,0.00,,---,0.00,VWS V13.01,2013-05-16 06:46:00,
2013-05-16 02:51:00,71.2,54.3,29.96,SE,135,0.0,5.1,55,0.00,,---,0.00,VWS V13.01,2013-05-16 06:51:00,
2013-05-16 02:56:00,71.2,54.3,29.96,ESE,112,0.0,5.1,55,0.00,,---,0.00,VWS V13.01,2013-05-16 06:56:00,
2013-05-16 03:00:00,71.2,54.3,29.96,SSE,158,0.0,5.1,55,0.00,,---,0.00,VWS V13.01,2013-05-16 07:00:00,
2013-05-16 03:01:00,71.2,54.3,29.96,SSE,158,0.0,5.1,55,0.00,,---,0.00,VWS V13.01,2013-05-16 07:01:00,
2013-05-16 03:06:00,71.1,54.1,29.96,SE,135,0.0,0.0,55,0.00,,---,0.00,VWS V13.01,2013-05-16 07:06:00,
2013-05-16 03:11:00,71.1,53.6,29.96,ESE,112,0.0,1.6,54,0.00,,---,0.00,VWS V13.01,2013-05-16 07:11:00,
2013-05-16 03:16:00,71.1,53.6,29.96,ESE,112,0.0,1.6,54,0.00,,---,0.00,VWS V13.01,2013-05-16 07:16:00,
2013-05-16 03:21:00,71.1,53.6,29.96,SSE,158,0.0,2.0,54,0.00,,---,0.00,VWS V13.01,2013-05-16 07:21:00,
2013-05-16 03:26:00,71.1,53.6,29.96,SSE,158,0.0,2.0,54,0.00,,---,0.00,VWS V13.01,2013-05-16 07:26:00,
2013-05-16 03:31:00,70.9,52.9,29.96,SSE,158,0.0,2.0,53,0.00,,---,0.00,VWS V13.01,2013-05-16 07:31:00,
2013-05-16 03:36:00,70.7,52.8,29.95,SSE,158,0.0,2.0,53,0.00,,---,0.00,VWS V13.01,2013-05-16 07:36:00,
2013-05-16 03:41:00,70.7,52.8,29.96,SSE,158,0.0,0.0,53,0.00,,---,0.00,VWS V13.01,2013-05-16 07:41:00,
2013-05-16 03:46:00,70.5,53.1,29.96,SSE,158,0.0,0.0,54,0.00,,---,0.00,VWS V13.01,2013-05-16 07:46:00,
2013-05-16 03:51:00,70.2,53.3,29.96,SSE,158,0.0,0.0,55,0.00,,---,0.00,VWS V13.01,2013-05-16 07:51:00,
2013-05-16 03:56:00,70.0,53.1,29.96,SSE,158,0.0,0.0,55,0.00,,---,0.00,VWS V13.01,2013-05-16 07:56:00,
2013-05-16 04:01:00,69.8,52.9,29.96,SSE,158,0.0,0.0,55,0.00,,---,0.00,VWS V13.01,2013-05-16 08:01:00,
2013-05-16 04:06:00,69.4,52.6,29.96,SSE,158,0.0,0.0,55,0.00,,---,0.00,VWS V13.01,2013-05-16 08:06:00,
2013-05-16 04:11:00,69.3,52.4,29.96,SSE,158,0.0,0.0,55,0.00,,---,0.00,VWS V13.01,2013-05-16 08:11:00,
2013-05-16 04:16:00,69.3,52.4,29.96,SSE,158,0.0,0.0,55,0.00,,---,0.00,VWS V13.01,2013-05-16 08:16:00,
2013-05-16 04:21:00,69.3,52.4,29.96,SSE,158,0.0,0.0,55,0.00,,---,0.00,VWS V13.01,2013-05-16 08:21:00,
2013-05-16 04:26:00,69.3,53.4,29.96,SSE,158,0.0,0.0,57,0.00,,---,0.00,VWS V13.01,2013-05-16 08:26:00,
2013-05-16 04:31:00,69.3,53.4,29.96,SSE,158,0.0,0.0,57,0.00,,---,0.00,VWS V13.01,2013-05-16 08:31:00,
2013-05-16 04:36:00,69.3,53.4,29.96,SSE,158,0.0,0.0,57,0.00,,---,0.00,VWS V13.01,2013-05-16 08:36:00,
2013-05-16 04:41:00,69.3,53.4,29.96,SSE,158,0.0,0.0,57,0.00,,---,0.00,VWS V13.01,2013-05-16 08:41:00,
2013-05-16 04:46:00,69.1,53.2,29.96,SSE,158,0.0,0.0,57,0.00,,---,0.00,VWS V13.01,2013-05-16 08:46:00,
2013-05-16 04:51:00,68.9,53.1,29.96,SSE,158,0.0,0.0,57,0.00,,---,0.00,VWS V13.01,2013-05-16 08:51:00,
2013-05-16 04:56:00,68.9,53.1,29.96,SSE,158,0.0,0.0,57,0.00,,---,0.00,VWS V13.01,2013-05-16 08:56:00,
2013-05-16 05:01:00,68.9,53.1,29.96,SSE,158,0.0,0.0,57,0.00,,---,0.00,VWS V13.01,2013-05-16 09:01:00,
2013-05-16 05:06:00,68.7,55.2,29.96,SSE,158,0.0,0.0,62,0.00,,---,0.00,VWS V13.01,2013-05-16 09:06:00,
2013-05-16 05:11:00,68.5,55.0,29.96,SSE,158,0.0,0.0,62,0.00,,---,0.00,VWS V13.01,2013-05-16 09:11:00,
2013-05-16 05:16:00,68.5,55.5,29.96,SSE,158,0.0,0.0,63,0.00,,---,0.00,VWS V13.01,2013-05-16 09:16:00,
2013-05-16 05:21:00,68.4,55.7,29.96,SSE,158,0.0,0.0,64,0.00,,---,0.00,VWS V13.01,2013-05-16 09:21:00,
2013-05-16 05:26:00,68.2,56.0,29.96,SSE,158,0.0,0.0,65,0.00,,---,0.00,VWS V13.01,2013-05-16 09:26:00,
2013-05-16 05:31:00,68.2,56.0,29.96,SSE,158,0.0,0.0,65,0.00,,---,0.00,VWS V13.01,2013-05-16 09:31:00,
2013-05-16 05:36:00,67.8,55.6,29.96,SSE,158,0.0,0.0,65,0.00,,---,0.00,VWS V13.01,2013-05-16 09:36:00,
2013-05-16 05:41:00,67.8,56.1,29.96,SSE,158,0.0,0.0,66,0.00,,---,0.00,VWS V13.01,2013-05-16 09:41:00,
2013-05-16 05:46:00,67.6,55.9,29.96,SSE,158,0.0,0.0,66,0.00,,---,0.00,VWS V13.01,2013-05-16 09:46:00,
2013-05-16 05:51:00,67.5,55.7,29.96,SSE,158,0.0,0.0,66,0.00,,---,0.00,VWS V13.01,2013-05-16 09:51:00,
2013-05-16 05:56:00,67.3,55.5,29.96,SSE,158,0.0,0.0,66,0.00,,---,0.00,VWS V13.01,2013-05-16 09:56:00,
2013-05-16 06:01:00,67.3,56.0,29.96,SSE,158,0.0,0.0,67,0.00,,---,0.00,VWS V13.01,2013-05-16 10:01:00,
2013-05-16 06:06:00,67.1,55.8,29.96,SSE,158,0.0,0.0,67,0.00,,---,0.00,VWS V13.01,2013-05-16 10:06:00,
2013-05-16 06:11:00,66.9,55.6,29.97,SSE,158,0.0,0.0,67,0.00,,---,0.00,VWS V13.01,2013-05-16 10:11:00,
2013-05-16 06:16:00,66.9,55.6,29.97,SSE,158,0.0,0.0,67,0.00,,---,0.00,VWS V13.01,2013-05-16 10:16:00,
2013-05-16 06:21:00,66.9,55.6,29.96,SSE,158,0.0,0.0,67,0.00,,---,0.00,VWS V13.01,2013-05-16 10:21:00,
2013-05-16 06:26:00,66.6,55.3,29.97,SSE,158,0.0,0.0,67,0.00,,---,0.00,VWS V13.01,2013-05-16 10:26:00,
2013-05-16 06:31:00,66.7,56.7,29.97,SSE,158,0.0,0.0,70,0.00,,---,0.00,VWS V13.01,2013-05-16 10:31:00,
2013-05-16 06:36:00,66.9,56.8,29.97,SSE,158,0.0,0.0,70,0.00,,---,0.00,VWS V13.01,2013-05-16 10:36:00,
2013-05-16 06:41:00,66.7,56.7,29.97,SSE,158,0.0,0.0,70,0.00,,---,0.00,VWS V13.01,2013-05-16 10:41:00,
2013-05-16 06:46:00,66.9,57.2,29.97,SSE,158,0.0,0.0,71,0.00,,---,0.00,VWS V13.01,2013-05-16 10:46:00,
2013-05-16 06:51:00,66.9,57.2,29.97,SSE,158,0.0,0.0,71,0.00,,---,0.00,VWS V13.01,2013-05-16 10:51:00,
2013-05-16 06:56:00,67.3,57.6,29.97,SSE,158,0.0,0.0,71,0.00,,---,0.00,VWS V13.01,2013-05-16 10:56:00,
2013-05-16 07:01:00,67.5,57.7,29.97,SSE,158,0.0,0.0,71,0.00,,---,0.00,VWS V13.01,2013-05-16 11:01:00,
2013-05-16 07:06:00,67.6,57.9,29.98,SSE,158,0.0,0.0,71,0.00,,---,0.00,VWS V13.01,2013-05-16 11:06:00,
2013-05-16 07:11:00,68.2,58.4,29.98,SSE,158,0.0,0.0,71,0.00,,---,0.00,VWS V13.01,2013-05-16 11:11:00,
2013-05-16 07:16:00,69.3,59.9,29.98,SSE,158,0.0,0.0,72,0.00,,---,0.00,VWS V13.01,2013-05-16 11:16:00,
2013-05-16 07:21:00,70.7,61.2,29.98,SSE,158,0.0,0.0,72,0.00,,---,0.00,VWS V13.01,2013-05-16 11:21:00,
2013-05-16 07:26:00,73.0,62.3,29.99,SSE,158,0.0,0.0,69,0.00,,---,0.00,VWS V13.01,2013-05-16 11:26:00,
2013-05-16 07:31:00,75.6,63.4,29.99,SSE,158,0.0,0.0,66,0.00,,---,0.00,VWS V13.01,2013-05-16 11:31:00,
2013-05-16 07:36:00,78.1,62.6,29.99,SSE,158,0.0,0.0,59,0.00,,---,0.00,VWS V13.01,2013-05-16 11:36:00,
2013-05-16 07:41:00,80.8,62.6,29.99,SSE,158,0.0,0.0,54,0.00,,---,0.00,VWS V13.01,2013-05-16 11:41:00,
2013-05-16 07:46:00,82.9,62.4,29.99,SSE,158,0.0,0.0,50,0.00,,---,0.00,VWS V13.01,2013-05-16 11:46:00,
2013-05-16 07:51:00,84.9,62.5,29.99,SSE,158,0.0,0.0,47,0.00,,---,0.00,VWS V13.01,2013-05-16 11:51:00,
2013-05-16 07:56:00,86.4,61.2,29.99,SSE,158,0.0,0.0,43,0.00,,---,0.00,VWS V13.01,2013-05-16 11:56:00,
2013-05-16 08:01:00,87.3,60.0,29.99,SSE,158,0.0,0.0,40,0.00,,---,0.00,VWS V13.01,2013-05-16 12:01:00,
2013-05-16 08:05:00,87.4,59.5,29.99,SSE,158,0.0,0.0,39,0.00,,---,0.00,VWS V13.01,2013-05-16 12:05:00,
2013-05-16 08:10:00,87.3,58.6,29.99,SSE,158,0.0,0.0,38,0.00,,---,0.00,VWS V13.01,2013-05-16 12:10:00,
2013-05-16 08:15:00,86.2,56.9,29.99,SSE,158,0.0,0.0,37,0.00,,---,0.00,VWS V13.01,2013-05-16 12:15:00,
2013-05-16 08:20:00,84.0,56.4,30.00,ENE,68,0.0,1.3,39,0.00,,---,0.00,VWS V13.01,2013-05-16 12:20:00,
2013-05-16 08:25:00,83.3,57.2,29.99,ENE,68,0.0,1.3,41,0.00,,---,0.00,VWS V13.01,2013-05-16 12:25:00,
2013-05-16 08:30:00,82.2,56.2,30.00,ENE,68,0.0,1.3,41,0.00,,---,0.00,VWS V13.01,2013-05-16 12:30:00,
2013-05-16 08:35:00,81.0,55.7,30.00,ENE,68,0.0,1.3,42,0.00,,---,0.00,VWS V13.01,2013-05-16 12:35:00,
2013-05-16 08:40:00,79.7,54.6,30.00,ENE,68,0.0,1.3,42,0.00,,---,0.00,VWS V13.01,2013-05-16 12:40:00,
2013-05-16 08:45:00,79.0,55.8,30.00,SE,135,0.0,1.3,45,0.00,,---,0.00,VWS V13.01,2013-05-16 12:45:00,
2013-05-16 08:50:00,78.4,55.4,30.00,ESE,112,0.0,1.3,45,0.00,,---,0.00,VWS V13.01,2013-05-16 12:50:00,
2013-05-16 08:55:00,78.4,56.6,30.00,ENE,68,4.7,9.8,47,0.00,,---,0.00,VWS V13.01,2013-05-16 12:55:00,
2013-05-16 09:00:00,78.6,56.7,30.00,East,90,0.0,5.1,47,0.00,,---,0.00,VWS V13.01,2013-05-16 13:00:00,
2013-05-16 09:05:00,78.3,55.2,30.00,South,180,3.8,8.5,45,0.00,,---,0.00,VWS V13.01,2013-05-16 13:05:00,
2013-05-16 09:10:00,79.0,56.5,30.00,South,180,0.0,8.5,46,0.00,,---,0.00,VWS V13.01,2013-05-16 13:10:00,
2013-05-16 09:15:00,79.2,56.6,30.00,SSE,158,3.8,8.5,46,0.00,,---,0.00,VWS V13.01,2013-05-16 13:15:00,
2013-05-16 09:20:00,79.2,56.0,30.01,South,180,0.0,8.5,45,0.00,,---,0.00,VWS V13.01,2013-05-16 13:20:00,
2013-05-16 09:25:00,79.2,56.0,30.01,East,90,0.9,8.5,45,0.00,,---,0.00,VWS V13.01,2013-05-16 13:25:00,
2013-05-16 09:30:00,79.3,55.6,30.01,ESE,112,4.0,8.5,44,0.00,,---,0.00,VWS V13.01,2013-05-16 13:30:00,
2013-05-16 09:35:00,79.5,55.1,30.01,ENE,68,0.0,8.5,43,0.00,,---,0.00,VWS V13.01,2013-05-16 13:35:00,
2013-05-16 09:40:00,80.1,54.9,30.01,SE,135,4.9,8.5,42,0.00,,---,0.00,VWS V13.01,2013-05-16 13:40:00,
2013-05-16 09:45:00,81.0,55.7,30.01,SSE,158,3.6,8.5,42,0.00,,---,0.00,VWS V13.01,2013-05-16 13:45:00,
2013-05-16 09:50:00,81.5,56.2,30.01,NE,45,1.8,8.5,42,0.00,,---,0.00,VWS V13.01,2013-05-16 13:50:00,
2013-05-16 09:55:00,81.9,55.2,30.01,East,90,3.8,8.5,40,0.00,,---,0.00,VWS V13.01,2013-05-16 13:55:00,
2013-05-16 10:00:00,82.4,55.7,30.01,SE,135,2.0,2.5,40,0.00,,---,0.00,VWS V13.01,2013-05-16 14:00:00,
2013-05-16 10:05:00,82.8,56.0,30.01,SE,135,1.8,5.8,40,0.00,,---,0.00,VWS V13.01,2013-05-16 14:05:00,
2013-05-16 10:10:00,82.8,55.3,30.01,SE,135,1.1,5.8,39,0.00,,---,0.00,VWS V13.01,2013-05-16 14:10:00,
2013-05-16 10:15:00,83.1,54.9,30.01,ESE,112,1.3,8.7,38,0.00,,---,0.00,VWS V13.01,2013-05-16 14:15:00,
2013-05-16 10:20:00,82.9,54.8,30.01,ESE,112,1.8,8.7,38,0.00,,---,0.00,VWS V13.01,2013-05-16 14:20:00,
2013-05-16 10:25:00,82.9,54.8,30.01,South,180,0.0,8.7,38,0.00,,---,0.00,VWS V13.01,2013-05-16 14:25:00,
2013-05-16 10:30:00,83.3,55.8,30.01,SE,135,5.6,8.7,39,0.00,,---,0.00,VWS V13.01,2013-05-16 14:30:00,
2013-05-16 10:35:00,83.1,54.9,30.01,SE,135,0.0,8.7,38,0.00,,---,0.00,VWS V13.01,2013-05-16 14:35:00,
2013-05-16 10:40:00,82.9,54.8,30.01,ESE,112,1.6,8.7,38,0.00,,---,0.00,VWS V13.01,2013-05-16 14:40:00,
2013-05-16 10:45:00,83.1,55.6,30.01,SE,135,10.5,10.5,39,0.00,,---,0.00,VWS V13.01,2013-05-16 14:45:00,
2013-05-16 10:50:00,83.5,55.2,30.01,East,90,1.3,10.5,38,0.00,,---,0.00,VWS V13.01,2013-05-16 14:50:00,
2013-05-16 10:55:00,84.0,56.4,30.01,SSE,158,2.2,10.5,39,0.00,,---,0.00,VWS V13.01,2013-05-16 14:55:00,
2013-05-16 11:00:00,84.6,56.9,30.01,East,90,4.3,5.1,39,0.00,,---,0.00,VWS V13.01,2013-05-16 15:00:00,
2013-05-16 11:05:00,83.8,54.8,30.02,ENE,68,0.0,8.5,37,0.00,,---,0.00,VWS V13.01,2013-05-16 15:05:00,
2013-05-16 11:10:00,83.8,55.5,30.01,ESE,112,3.4,8.5,38,0.00,,---,0.00,VWS V13.01,2013-05-16 15:10:00,
2013-05-16 11:15:00,83.7,55.4,30.01,ESE,112,1.6,8.5,38,0.00,,---,0.00,VWS V13.01,2013-05-16 15:15:00,
2013-05-16 11:20:00,83.5,55.2,30.02,East,90,2.9,8.5,38,0.00,,---,0.00,VWS V13.01,2013-05-16 15:20:00,
2013-05-16 11:25:00,84.2,55.9,30.01,SE,135,2.9,8.5,38,0.00,,---,0.00,VWS V13.01,2013-05-16 15:25:00,
2013-05-16 11:30:00,84.9,55.8,30.02,ESE,112,5.6,8.5,37,0.00,,---,0.00,VWS V13.01,2013-05-16 15:30:00,
2013-05-16 11:35:00,85.6,55.7,30.01,SE,135,2.2,8.5,36,0.00,,---,0.00,VWS V13.01,2013-05-16 15:35:00,
2013-05-16 11:40:00,86.2,55.3,30.02,SSE,158,1.6,8.5,35,0.00,,---,0.00,VWS V13.01,2013-05-16 15:40:00,
2013-05-16 11:45:00,86.2,55.3,30.02,SE,135,5.4,8.5,35,0.00,,---,0.00,VWS V13.01,2013-05-16 15:45:00,
2013-05-16 11:50:00,86.2,54.5,30.02,SE,135,0.0,8.5,34,0.00,,---,0.00,VWS V13.01,2013-05-16 15:50:00,
2013-05-16 11:55:00,85.5,53.1,30.02,SE,135,3.6,8.5,33,0.00,,---,0.00,VWS V13.01,2013-05-16 15:55:00,
2013-05-16 12:00:00,84.4,53.8,30.02,SE,135,2.5,2.5,35,0.00,,---,0.00,VWS V13.01,2013-05-16 16:00:00,
2013-05-16 12:05:00,85.1,54.4,30.02,SE,135,4.7,7.8,35,0.00,,---,0.00,VWS V13.01,2013-05-16 16:05:00,
2013-05-16 12:10:00,86.4,55.5,30.02,SE,135,0.0,7.8,35,0.00,,---,0.00,VWS V13.01,2013-05-16 16:10:00,
2013-05-16 12:15:00,87.1,55.3,30.02,ESE,112,2.5,7.8,34,0.00,,---,0.00,VWS V13.01,2013-05-16 16:15:00,
2013-05-16 12:20:00,87.1,54.5,30.02,ESE,112,3.6,7.8,33,0.00,,---,0.00,VWS V13.01,2013-05-16 16:20:00,
2013-05-16 12:25:00,86.7,55.0,30.02,ENE,68,1.6,7.8,34,0.00,,---,0.00,VWS V13.01,2013-05-16 16:25:00,
2013-05-16 12:30:00,86.2,53.7,30.02,East,90,1.8,7.8,33,0.00,,---,0.00,VWS V13.01,2013-05-16 16:30:00,
2013-05-16 12:35:00,86.0,54.4,30.02,SE,135,4.0,7.8,34,0.00,,---,0.00,VWS V13.01,2013-05-16 16:35:00,
2013-05-16 12:40:00,85.3,53.8,30.02,NE,45,0.0,7.8,34,0.00,,---,0.00,VWS V13.01,2013-05-16 16:40:00,
2013-05-16 12:45:00,85.3,54.6,30.01,ESE,112,1.1,7.8,35,0.00,,---,0.00,VWS V13.01,2013-05-16 16:45:00,
2013-05-16 12:50:00,85.6,54.9,30.01,ESE,112,0.0,7.8,35,0.00,,---,0.00,VWS V13.01,2013-05-16 16:50:00,
2013-05-16 12:55:00,85.3,54.6,30.01,South,180,0.0,7.8,35,0.00,,---,0.00,VWS V13.01,2013-05-16 16:55:00,
2013-05-16 13:00:00,85.1,54.4,30.01,SE,135,6.3,6.3,35,0.00,,---,0.00,VWS V13.01,2013-05-16 17:00:00,
2013-05-16 13:05:00,85.1,55.9,30.01,SE,135,7.8,7.8,37,0.00,,---,0.00,VWS V13.01,2013-05-16 17:05:00,
2013-05-16 13:10:00,86.0,56.0,30.01,ENE,68,1.3,7.8,36,0.00,,---,0.00,VWS V13.01,2013-05-16 17:10:00,
2013-05-16 13:15:00,85.6,54.9,30.01,SE,135,2.9,7.8,35,0.00,,---,0.00,VWS V13.01,2013-05-16 17:15:00,
2013-05-16 13:20:00,85.3,55.3,30.01,SE,135,3.4,7.8,36,0.00,,---,0.00,VWS V13.01,2013-05-16 17:20:00,
2013-05-16 13:25:00,85.1,55.2,30.01,SSE,158,2.2,7.8,36,0.00,,---,0.00,VWS V13.01,2013-05-16 17:25:00,
2013-05-16 13:30:00,84.9,54.2,30.01,ENE,68,0.0,7.8,35,0.00,,---,0.00,VWS V13.01,2013-05-16 17:30:00,
2013-05-16 13:35:00,86.2,57.6,30.01,SSE,158,3.6,7.8,38,0.00,,---,0.00,VWS V13.01,2013-05-16 17:35:00,
2013-05-16 13:40:00,86.5,56.4,30.00,ENE,68,4.0,8.7,36,0.00,,---,0.00,VWS V13.01,2013-05-16 17:40:00,
2013-05-16 13:45:00,86.2,55.3,30.00,NE,45,3.8,8.7,35,0.00,,---,0.00,VWS V13.01,2013-05-16 17:45:00,
2013-05-16 13:50:00,86.2,56.9,30.00,SE,135,3.4,8.7,37,0.00,,---,0.00,VWS V13.01,2013-05-16 17:50:00,
2013-05-16 13:55:00,87.1,56.9,30.00,SE,135,0.0,8.7,36,0.00,,---,0.00,VWS V13.01,2013-05-16 17:55:00,
2013-05-16 14:00:00,87.3,56.3,30.00,ENE,68,2.2,2.7,35,0.00,,---,0.00,VWS V13.01,2013-05-16 18:00:00,
2013-05-16 14:05:00,87.3,56.3,30.00,ENE,68,6.3,6.3,35,0.00,,---,0.00,VWS V13.01,2013-05-16 18:05:00,
2013-05-16 14:10:00,86.4,55.5,30.00,NE,45,1.8,10.1,35,0.00,,---,0.00,VWS V13.01,2013-05-16 18:10:00,
2013-05-16 14:15:00,85.5,54.7,29.99,SSE,158,0.0,10.1,35,0.00,,---,0.00,VWS V13.01,2013-05-16 18:15:00,
2013-05-16 14:20:00,85.1,55.2,29.99,ENE,68,0.0,10.1,36,0.00,,---,0.00,VWS V13.01,2013-05-16 18:20:00,
2013-05-16 14:25:00,85.3,55.3,29.99,ENE,68,0.0,10.1,36,0.00,,---,0.00,VWS V13.01,2013-05-16 18:25:00,
2013-05-16 14:30:00,85.8,56.6,29.99,SSE,158,7.2,10.1,37,0.00,,---,0.00,VWS V13.01,2013-05-16 18:30:00,
2013-05-16 14:35:00,86.7,57.4,29.99,SE,135,2.2,10.1,37,0.00,,---,0.00,VWS V13.01,2013-05-16 18:35:00,
2013-05-16 14:40:00,86.7,57.4,29.99,SE,135,3.4,10.1,37,0.00,,---,0.00,VWS V13.01,2013-05-16 18:40:00,
2013-05-16 14:45:00,86.4,55.5,29.99,East,90,1.8,10.1,35,0.00,,---,0.00,VWS V13.01,2013-05-16 18:45:00,
2013-05-16 14:50:00,86.5,56.4,29.99,South,180,2.5,10.1,36,0.00,,---,0.00,VWS V13.01,2013-05-16 18:50:00,
2013-05-16 14:55:00,86.9,56.0,29.99,ENE,68,4.9,10.1,35,0.00,,---,0.00,VWS V13.01,2013-05-16 18:55:00,
2013-05-16 15:00:00,86.9,56.0,29.98,SE,135,4.3,4.3,35,0.00,,---,0.00,VWS V13.01,2013-05-16 19:00:00,
2013-05-16 15:05:00,86.9,55.2,29.98,NE,45,1.3,9.2,34,0.00,,---,0.00,VWS V13.01,2013-05-16 19:05:00,
2013-05-16 15:10:00,86.7,55.8,29.98,East,90,4.9,9.2,35,0.00,,---,0.00,VWS V13.01,2013-05-16 19:10:00,
2013-05-16 15:15:00,86.4,54.7,29.98,ENE,68,1.3,9.2,34,0.00,,---,0.00,VWS V13.01,2013-05-16 19:15:00,
2013-05-16 15:20:00,85.6,54.1,29.98,SSE,158,3.4,9.2,34,0.00,,---,0.00,VWS V13.01,2013-05-16 19:20:00,
2013-05-16 15:25:00,85.1,55.2,29.97,East,90,3.6,9.2,36,0.00,,---,0.00,VWS V13.01,2013-05-16 19:25:00,
2013-05-16 15:30:00,85.3,55.3,29.98,East,90,4.7,9.2,36,0.00,,---,0.00,VWS V13.01,2013-05-16 19:30:00,
2013-05-16 15:35:00,86.2,56.1,29.97,ESE,112,2.9,9.2,36,0.00,,---,0.00,VWS V13.01,2013-05-16 19:35:00,
2013-05-16 15:40:00,85.8,55.8,29.97,SE,135,0.0,9.2,36,0.00,,---,0.00,VWS V13.01,2013-05-16 19:40:00,
2013-05-16 15:45:00,86.0,56.0,29.97,ESE,112,3.8,9.2,36,0.00,,---,0.00,VWS V13.01,2013-05-16 19:45:00,
2013-05-16 15:50:00,86.2,56.9,29.97,ESE,112,3.8,9.2,37,0.00,,---,0.00,VWS V13.01,2013-05-16 19:50:00,
2013-05-16 15:55:00,85.6,55.7,29.97,ENE,68,2.5,9.4,36,0.00,,---,0.00,VWS V13.01,2013-05-16 19:55:00,
2013-05-16 16:00:00,84.7,55.6,29.96,ESE,112,3.1,6.0,37,0.00,,---,0.00,VWS V13.01,2013-05-16 20:00:00,
2013-05-16 16:05:00,84.0,55.0,29.96,NE,45,0.0,6.5,37,0.00,,---,0.00,VWS V13.01,2013-05-16 20:05:00,
2013-05-16 16:10:00,84.6,56.9,29.96,ESE,112,4.9,7.6,39,0.00,,---,0.00,VWS V13.01,2013-05-16 20:10:00,
2013-05-16 16:15:00,85.5,56.2,29.97,ESE,112,4.9,8.5,37,0.00,,---,0.00,VWS V13.01,2013-05-16 20:15:00,
2013-05-16 16:20:00,86.2,56.9,29.96,SE,135,3.4,8.5,37,0.00,,---,0.00,VWS V13.01,2013-05-16 20:20:00,
2013-05-16 16:25:00,86.4,57.0,29.96,ESE,112,9.2,9.8,37,0.00,,---,0.00,VWS V13.01,2013-05-16 20:25:00,
2013-05-16 16:30:00,86.4,56.3,29.96,ESE,112,5.1,9.8,36,0.00,,---,0.00,VWS V13.01,2013-05-16 20:30:00,
2013-05-16 16:35:00,85.5,55.5,29.96,SE,135,2.0,9.8,36,0.00,,---,0.00,VWS V13.01,2013-05-16 20:35:00,
2013-05-16 16:40:00,84.9,56.5,29.96,SE,135,1.3,10.3,38,0.00,,---,0.00,VWS V13.01,2013-05-16 20:40:00,
2013-05-16 16:45:00,84.6,56.2,29.96,SE,135,3.4,10.3,38,0.00,,---,0.00,VWS V13.01,2013-05-16 20:45:00,
2013-05-16 16:50:00,84.0,55.7,29.96,ENE,68,3.4,10.3,38,0.00,,---,0.00,VWS V13.01,2013-05-16 20:50:00,
2013-05-16 16:55:00,83.7,55.4,29.96,ENE,68,5.8,10.3,38,0.00,,---,0.00,VWS V13.01,2013-05-16 20:55:00,
2013-05-16 17:00:00,82.9,54.8,29.96,SE,135,6.3,6.5,38,0.00,,---,0.00,VWS V13.01,2013-05-16 21:00:00,
2013-05-16 17:05:00,82.8,54.6,29.96,East,90,4.0,7.2,38,0.00,,---,0.00,VWS V13.01,2013-05-16 21:05:00,
2013-05-16 17:10:00,82.8,54.6,29.96,SE,135,11.0,11.0,38,0.00,,---,0.00,VWS V13.01,2013-05-16 21:10:00,
2013-05-16 17:15:00,83.5,55.2,29.96,ESE,112,2.2,11.0,38,0.00,,---,0.00,VWS V13.01,2013-05-16 21:15:00,
2013-05-16 17:20:00,83.5,55.2,29.96,ENE,68,3.4,11.0,38,0.00,,---,0.00,VWS V13.01,2013-05-16 21:20:00,
2013-05-16 17:25:00,83.7,55.4,29.96,ESE,112,2.0,11.0,38,0.00,,---,0.00,VWS V13.01,2013-05-16 21:25:00,
2013-05-16 17:30:00,83.3,57.2,29.96,SE,135,3.6,11.0,41,0.00,,---,0.00,VWS V13.01,2013-05-16 21:30:00,
2013-05-16 17:35:00,83.8,57.7,29.96,SSE,158,6.0,11.0,41,0.00,,---,0.00,VWS V13.01,2013-05-16 21:35:00,
2013-05-16 17:40:00,84.2,58.0,29.96,East,90,0.0,11.0,41,0.00,,---,0.00,VWS V13.01,2013-05-16 21:40:00,
2013-05-16 17:45:00,84.4,58.1,29.96,ESE,112,2.5,11.0,41,0.00,,---,0.00,VWS V13.01,2013-05-16 21:45:00,
2013-05-16 17:50:00,83.7,57.5,29.96,SSE,158,4.9,11.0,41,0.00,,---,0.00,VWS V13.01,2013-05-16 21:50:00,
2013-05-16 17:55:00,83.7,57.5,29.96,ESE,112,0.7,11.0,41,0.00,,---,0.00,VWS V13.01,2013-05-16 21:55:00,
2013-05-16 18:00:00,84.0,57.8,29.95,South,180,6.5,6.5,41,0.00,,---,0.00,VWS V13.01,2013-05-16 22:00:00,
2013-05-16 18:05:00,83.5,57.3,29.96,ESE,112,0.0,8.5,41,0.00,,---,0.00,VWS V13.01,2013-05-16 22:05:00,
2013-05-16 18:10:00,83.3,57.2,29.95,ENE,68,4.5,8.5,41,0.00,,---,0.00,VWS V13.01,2013-05-16 22:10:00,
2013-05-16 18:15:00,82.9,56.8,29.95,ESE,112,3.4,8.5,41,0.00,,---,0.00,VWS V13.01,2013-05-16 22:15:00,
2013-05-16 18:20:00,82.6,56.5,29.95,East,90,1.3,8.5,41,0.00,,---,0.00,VWS V13.01,2013-05-16 22:20:00,
2013-05-16 18:25:00,82.4,56.4,29.96,SE,135,1.3,8.5,41,0.00,,---,0.00,VWS V13.01,2013-05-16 22:25:00,
2013-05-16 18:30:00,82.2,57.5,29.95,ENE,68,2.9,12.1,43,0.00,,---,0.00,VWS V13.01,2013-05-16 22:30:00,
2013-05-16 18:35:00,81.9,57.2,29.96,ENE,68,2.5,12.1,43,0.00,,---,0.00,VWS V13.01,2013-05-16 22:35:00,
2013-05-16 18:40:00,81.3,56.7,29.96,ESE,112,0.0,12.1,43,0.00,,---,0.00,VWS V13.01,2013-05-16 22:40:00,
2013-05-16 18:45:00,81.3,56.7,29.95,ESE,112,2.5,12.1,43,0.00,,---,0.00,VWS V13.01,2013-05-16 22:45:00,
2013-05-16 18:50:00,81.1,56.5,29.95,ESE,112,5.8,12.1,43,0.00,,---,0.00,VWS V13.01,2013-05-16 22:50:00,
2013-05-16 18:55:00,81.0,57.0,29.95,ENE,68,3.6,12.1,44,0.00,,---,0.00,VWS V13.01,2013-05-16 22:55:00,
2013-05-16 19:00:00,81.0,57.0,29.96,ENE,68,2.9,12.1,44,0.00,,---,0.00,VWS V13.01,2013-05-16 23:00:00,
2013-05-16 19:05:00,80.6,56.7,29.95,ENE,68,1.1,7.4,44,0.00,,---,0.00,VWS V13.01,2013-05-16 23:05:00,
2013-05-16 19:10:00,80.1,56.2,29.96,ESE,112,3.8,12.1,44,0.00,,---,0.00,VWS V13.01,2013-05-16 23:10:00,
2013-05-16 19:15:00,80.1,56.2,29.95,East,90,4.5,12.1,44,0.00,,---,0.00,VWS V13.01,2013-05-16 23:15:00,
2013-05-16 19:20:00,79.5,55.7,29.96,ESE,112,0.0,12.1,44,0.00,,---,0.00,VWS V13.01,2013-05-16 23:20:00,
2013-05-16 19:25:00,79.5,55.7,29.96,SE,135,1.8,12.1,44,0.00,,---,0.00,VWS V13.01,2013-05-16 23:25:00,
2013-05-16 19:30:00,79.5,55.7,29.95,ESE,112,5.6,12.1,44,0.00,,---,0.00,VWS V13.01,2013-05-16 23:30:00,
2013-05-16 19:35:00,79.0,55.2,29.95,East,90,4.0,12.1,44,0.00,,---,0.00,VWS V13.01,2013-05-16 23:35:00,
2013-05-16 19:40:00,78.6,54.9,29.95,ENE,68,7.2,12.1,44,0.00,,---,0.00,VWS V13.01,2013-05-16 23:40:00,
2013-05-16 19:45:00,78.4,54.7,29.95,SE,135,1.6,12.1,44,0.00,,---,0.00,VWS V13.01,2013-05-16 23:45:00,
2013-05-16 19:50:00,78.3,54.6,29.95,NE,45,0.0,12.1,44,0.00,,---,0.00,VWS V13.01,2013-05-16 23:50:00,
2013-05-16 19:55:00,78.1,54.4,29.96,ENE,68,5.4,12.1,44,0.00,,---,0.00,VWS V13.01,2013-05-16 23:55:00,
2013-05-16 20:00:00,77.7,54.1,29.96,East,90,1.3,12.1,44,0.00,,---,0.00,VWS V13.01,2013-05-17 00:00:00,
2013-05-16 20:05:00,77.4,53.8,29.95,East,90,5.1,8.1,44,0.00,,---,0.00,VWS V13.01,2013-05-17 00:05:00,
2013-05-16 20:10:00,77.4,53.8,29.96,SE,135,2.7,8.1,44,0.00,,---,0.00,VWS V13.01,2013-05-17 00:10:00,
2013-05-16 20:15:00,77.2,53.6,29.96,NE,45,1.3,8.1,44,0.00,,---,0.00,VWS V13.01,2013-05-17 00:15:00,
2013-05-16 20:20:00,76.8,53.3,29.96,ENE,68,0.0,8.1,44,0.00,,---,0.00,VWS V13.01,2013-05-17 00:20:00,
2013-05-16 20:25:00,76.8,57.3,29.96,ESE,112,3.1,8.1,51,0.00,,---,0.00,VWS V13.01,2013-05-17 00:25:00,
2013-05-16 20:30:00,76.6,57.2,29.96,ESE,112,2.5,8.1,51,0.00,,---,0.00,VWS V13.01,2013-05-17 00:30:00,
2013-05-16 20:35:00,76.5,57.0,29.96,East,90,0.0,8.1,51,0.00,,---,0.00,VWS V13.01,2013-05-17 00:35:00,
2013-05-16 20:40:00,76.5,57.0,29.96,East,90,2.9,8.1,51,0.00,,---,0.00,VWS V13.01,2013-05-17 00:40:00,
2013-05-16 20:45:00,76.5,57.0,29.96,ESE,112,0.0,8.1,51,0.00,,---,0.00,VWS V13.01,2013-05-17 00:45:00,
2013-05-16 20:50:00,76.3,56.8,29.96,ESE,112,4.7,8.1,51,0.00,,---,0.00,VWS V13.01,2013-05-17 00:50:00,
2013-05-16 20:55:00,76.3,56.8,29.96,ENE,68,3.8,8.1,51,0.00,,---,0.00,VWS V13.01,2013-05-17 00:55:00,
2013-05-16 21:00:00,76.1,56.7,29.96,ENE,68,5.4,8.1,51,0.00,,---,0.00,VWS V13.01,2013-05-17 01:00:00,
2013-05-16 21:05:00,75.9,56.5,29.97,East,90,0.0,5.4,51,0.00,,---,0.00,VWS V13.01,2013-05-17 01:05:00,
2013-05-16 21:10:00,75.9,56.5,29.96,SE,135,2.5,5.4,51,0.00,,---,0.00,VWS V13.01,2013-05-17 01:10:00,
2013-05-16 21:15:00,75.9,56.5,29.96,NE,45,0.0,5.4,51,0.00,,---,0.00,VWS V13.01,2013-05-17 01:15:00,
2013-05-16 21:20:00,75.9,56.5,29.96,East,90,0.0,5.4,51,0.00,,---,0.00,VWS V13.01,2013-05-17 01:20:00,
2013-05-16 21:25:00,75.9,57.6,29.96,East,90,0.0,5.4,53,0.00,,---,0.00,VWS V13.01,2013-05-17 01:25:00,
2013-05-16 21:30:00,75.7,57.4,29.97,NE,45,0.0,5.4,53,0.00,,---,0.00,VWS V13.01,2013-05-17 01:30:00,
2013-05-16 21:35:00,75.6,57.2,29.97,ENE,68,2.0,5.4,53,0.00,,---,0.00,VWS V13.01,2013-05-17 01:35:00,
2013-05-16 21:40:00,75.6,57.2,29.96,ENE,68,0.0,5.4,53,0.00,,---,0.00,VWS V13.01,2013-05-17 01:40:00,
2013-05-16 21:45:00,75.4,57.1,29.97,ENE,68,0.0,5.4,53,0.00,,---,0.00,VWS V13.01,2013-05-17 01:45:00,
2013-05-16 21:50:00,75.6,57.2,29.97,SSE,158,0.0,5.4,53,0.00,,---,0.00,VWS V13.01,2013-05-17 01:50:00,
2013-05-16 21:55:00,75.4,58.1,29.97,East,90,0.0,5.4,55,0.00,,---,0.00,VWS V13.01,2013-05-17 01:55:00,
2013-05-16 22:00:00,75.4,58.1,29.97,ESE,112,2.5,5.4,55,0.00,,---,0.00,VWS V13.01,2013-05-17 02:00:00,
2013-05-16 22:05:00,75.2,57.9,29.97,East,90,0.0,4.0,55,0.00,,---,0.00,VWS V13.01,2013-05-17 02:05:00,
2013-05-16 22:10:00,75.2,57.9,29.97,ENE,68,0.0,4.0,55,0.00,,---,0.00,VWS V13.01,2013-05-17 02:10:00,
2013-05-16 22:15:00,75.2,57.9,29.97,SE,135,0.0,4.0,55,0.00,,---,0.00,VWS V13.01,2013-05-17 02:15:00,
2013-05-16 22:20:00,75.2,57.9,29.97,ESE,112,0.0,4.9,55,0.00,,---,0.00,VWS V13.01,2013-05-17 02:20:00,
2013-05-16 22:25:00,75.0,57.8,29.97,ENE,68,0.0,4.9,55,0.00,,---,0.00,VWS V13.01,2013-05-17 02:25:00,
2013-05-16 22:30:00,74.8,58.1,29.97,ESE,112,0.0,4.9,56,0.00,,---,0.00,VWS V13.01,2013-05-17 02:30:00,
2013-05-16 22:35:00,74.8,58.1,29.97,ENE,68,0.0,4.9,56,0.00,,---,0.00,VWS V13.01,2013-05-17 02:35:00,
2013-05-16 22:40:00,74.8,58.6,29.97,ENE,68,5.1,5.1,57,0.00,,---,0.00,VWS V13.01,2013-05-17 02:40:00,
2013-05-16 22:45:00,74.8,58.6,29.97,East,90,0.0,5.1,57,0.00,,---,0.00,VWS V13.01,2013-05-17 02:45:00,
2013-05-16 22:50:00,74.7,58.4,29.97,East,90,0.0,5.1,57,0.00,,---,0.00,VWS V13.01,2013-05-17 02:50:00,
2013-05-16 22:55:00,74.7,58.4,29.97,SE,135,0.0,5.1,57,0.00,,---,0.00,VWS V13.01,2013-05-17 02:55:00,
2013-05-16 23:00:00,74.7,58.4,29.97,SE,135,0.0,5.1,57,0.00,,---,0.00,VWS V13.01,2013-05-17 03:00:00,
2013-05-16 23:05:00,74.7,58.4,29.97,ESE,112,1.6,3.1,57,0.00,,---,0.00,VWS V13.01,2013-05-17 03:05:00,
2013-05-16 23:10:00,74.7,57.9,29.97,SSE,158,0.0,3.1,56,0.00,,---,0.00,VWS V13.01,2013-05-17 03:10:00,
2013-05-16 23:15:00,74.7,58.4,29.97,East,90,0.0,3.1,57,0.00,,---,0.00,VWS V13.01,2013-05-17 03:15:00,
2013-05-16 23:20:00,74.7,58.4,29.96,NE,45,0.0,6.0,57,0.00,,---,0.00,VWS V13.01,2013-05-17 03:20:00,
2013-05-16 23:25:00,74.7,58.4,29.97,NE,45,0.0,6.0,57,0.00,,---,0.00,VWS V13.01,2013-05-17 03:25:00,
2013-05-16 23:30:00,74.7,58.4,29.97,NE,45,0.0,6.0,57,0.00,,---,0.00,VWS V13.01,2013-05-17 03:30:00,
2013-05-16 23:35:00,74.5,58.3,29.96,NE,45,0.0,6.0,57,0.00,,---,0.00,VWS V13.01,2013-05-17 03:35:00,
2013-05-16 23:40:00,74.3,58.1,29.96,NE,45,0.0,6.0,57,0.00,,---,0.00,VWS V13.01,2013-05-17 03:40:00,
2013-05-16 23:45:00,74.3,58.1,29.96,NE,45,0.0,6.0,57,0.00,,---,0.00,VWS V13.01,2013-05-17 03:45:00,
2013-05-16 23:50:00,74.3,58.1,29.96,NE,45,0.0,6.0,57,0.00,,---,0.00,VWS V13.01,2013-05-17 03:50:00,
2013-05-16 23:55:00,74.1,57.9,29.97,NE,45,0.0,6.0,57,0.00,,---,0.00,VWS V13.01,2013-05-17 03:55:00,